sat.trackr.live / text

‹ back to catalog

STARLINK-3274

NORAD 50186 · 2021-125AG

PAYLOAD ACTIVE UNKNOWN

§ Identity

Operator
Country
US
Launch date
2021-12-18
Launch site
AFWTR
Launch vehicle
Mass (kg)
RCS (m²)

Purposes: comms

External: N2YO · Heavens-Above · Gunter

§ Orbital elements

Epoch: 2026-05-25T01:29:07.452384Z

Period
95.44 min
Inclination
53.2148°
Eccentricity
0.0000829
Mean motion
15.08834990 rev/d
Perigee alt
539.2 km
Apogee alt
540.3 km
Semi-major
6,917.9 km
B*
4.6213e-5
RAAN
276.2700°
Arg perigee
116.5918°
Mean anomaly
243.5160°
Rev number
24,798

§ Raw data

STARLINK-32741 50186U 21125AG  26145.06189181  .00000448  00000+0  46213-4 0  99982 50186  53.2148 276.2700 0000829 116.5918 243.5160 15.08834990247987

JSON: /api/v1/satellites/50186 · /tle

For live sub-satellite position, see the globe view (requires WebGL).

§ Visibility from observer

Set your observer location to see the next 7 days of passes ≥ 10°. The values pass through the URL so the page stays shareable.

No JS? Fill the form by hand. The geolocation button needs JavaScript.